Temp_Advection
nan nan nan nan nan nan nan nan nan nan nan nan nan nan nan nan nan nan nan nan nan nan nan nan nan nan nan nan nan nan nan nan nan nan nan nan nan nan nan nan nan nan nan nan nan nan nan nan nan nan nan nan nan nan nan nan nan nan nan nan nan nan nan nan nan nan nan nan nan nan nan nan nan nan
nan -0 0 0 0 0 0 0 0 0 0 0 0 0 0 0 0 0 -0 -1 -1 -0 -0 0 1 -0 -1 -0 0 -0 0 0 -0 -0 -0 0 0 0 0 0 0 0 0 -0 0 0 0 0 0 0 0 0 0 -0 -0 -0 -0 -0 -0 0 0 0 0 0 0 0 -0 -0 -0 -0 -0 -0 0 nan
nan -0 -0 -0 0 0 0 0 -0 0 0 0 0 0 0 0 0 0 0 -1 -1 -0 -0 0 0 -0 -1 -0 0 0 0 0 -0 -0 -0 -0 0 0 0 0 0 0 0 0 0 0 0 0 0 0 0 0 0 -0 -0 -0 -0 -0 -0 0 0 0 0 0 0 0 -0 -0 -0 -0 -0 -0 0 nan
nan 0 0 0 0 0 0 0 -0 -0 0 0 0 0 0 0 -0 0 0 -0 -1 -0 -0 0 0 -0 -1 -0 0 0 0 0 -0 -0 -0 -0 0 0 0 0 0 0 0 0 0 0 0 0 0 0 0 0 0 -0 -0 -0 -0 -0 -0 0 0 0 0 0 0 0 -0 -0 -0 -0 -0 -0 0 nan
nan 0 0 0 0 0 -0 -0 -0 0 0 -0 -0 0 0 0 -0 -0 -0 -0 -1 -0 -0 0 0 -0 -0 -0 0 0 -0 -0 -0 -0 -0 -0 0 0 -0 0 0 0 0 0 0 0 0 0 0 0 0 0 0 0 -0 -0 -0 -0 -0 -0 0 0 0 0 0 0 0 0 0 0 -0 0 0 nan
nan -0 -0 -0 0 0 0 -0 0 0 0 -0 -0 0 0 0 0 -0 -0 -0 -0 -1 -0 0 0 -0 -1 -0 0 -0 -0 0 -0 -0 -0 -0 0 0 0 0 0 0 0 0 0 0 0 0 0 0 0 0 0 0 -0 -0 -0 -0 -0 -0 0 0 0 0 0 0 0 0 0 0 0 0 0 nan
nan 0 0 0 -0 -0 -0 0 0 0 -0 -0 -0 0 -0 -0 0 -0 -0 -0 -0 -0 -1 -0 0 0 -1 -1 -0 0 0 0 -0 0 -0 -0 -0 -0 0 0 0 1 1 1 0 0 1 0 0 0 0 0 0 0 -0 -0 -0 -0 -0 -0 -0 0 0 0 0 0 0 0 0 0 0 0 0 nan
nan 0 0 0 0 -0 -0 -0 -0 -0 -0 -0 -0 -0 -0 -0 0 0 -0 -0 0 -0 -1 -0 0 1 0 -1 -0 0 0 -0 -0 0 -0 -0 0 0 0 0 1 1 1 1 0 0 1 1 0 0 0 0 0 -0 -0 0 -0 -0 -0 -0 -0 0 0 0 0 0 0 0 0 0 0 0 0 nan
nan 0 0 1 0 0 -0 -0 -0 -0 -0 -0 -0 0 -0 -0 0 -0 -0 -0 0 -0 -0 -0 -0 0 1 -0 -1 -0 1 0 -0 -0 -0 0 0 1 1 1 0 0 0 0 1 1 1 1 0 0 0 0 0 0 -0 0 0 -0 -0 -0 -0 0 0 0 0 0 0 0 0 0 0 0 0 nan
nan 1 1 1 0 -0 -0 -0 0 -0 -0 -0 0 0 -0 -0 0 0 -0 -0 -0 -0 -0 -0 -0 -0 0 0 -1 -0 1 0 -0 0 0 0 0 1 1 0 0 0 -0 0 1 1 1 1 0 0 0 0 0 0 0 0 0 -0 -0 -0 -0 0 0 0 0 0 0 0 0 0 0 0 0 nan
nan 1 1 0 -0 -0 -0 -0 -0 -0 -0 -0 -0 -0 -0 -0 -0 -0 0 0 -0 -0 -0 -0 -0 -0 -0 0 -0 -0 0 0 -0 0 -0 -0 0 1 1 0 0 -0 -0 0 1 1 1 1 0 0 0 0 0 0 0 0 0 -0 -0 -0 -0 0 0 0 0 0 0 0 0 0 0 0 0 nan
nan 1 0 -0 -0 -0 -0 -0 -0 -0 -0 -0 -1 -0 -0 -0 -0 -0 0 -0 -0 -0 -0 -0 -0 -0 -0 0 0 -0 -0 0 0 -0 -1 -0 1 1 0 -0 -0 -0 -0 0 0 1 1 1 0 0 0 0 0 -0 -0 0 0 0 -0 -0 -0 0 0 0 0 0 0 0 0 0 0 0 0 nan
nan 0 0 0 0 0 -0 -1 -1 -0 0 -0 -1 -1 -1 -0 -0 -0 0 0 -0 -0 -0 -0 -0 -0 -0 -0 0 0 -0 -0 -0 -0 -0 -0 0 1 0 0 -0 -0 0 0 0 1 1 1 0 0 0 0 -0 -0 -0 0 0 0 0 -0 -0 0 0 0 0 0 0 0 0 0 0 0 0 nan
nan 0 0 0 0 0 -0 -0 -1 -1 -0 -0 -0 -1 -1 -1 -1 -1 -0 0 0 -0 -0 0 -0 -0 -0 -0 0 0 -0 -1 -1 -0 0 0 0 1 0 -0 -0 0 0 0 -0 0 1 1 0 -0 0 0 -0 -0 -0 0 1 0 0 -0 -0 -0 0 0 0 0 0 0 0 0 0 0 0 nan
nan 0 0 0 0 0 0 0 -0 -0 -0 -0 -0 -1 -1 -1 -1 -1 -1 -1 -0 0 -0 -0 0 -0 -0 -1 -0 0 -0 -0 -1 -1 -0 0 1 1 0 -0 -0 0 1 0 -0 -0 1 1 0 -0 0 0 -0 0 1 1 1 0 0 0 -0 -0 0 0 0 0 0 0 0 0 0 0 0 nan
nan 0 0 0 0 0 0 0 0 -0 -0 -0 -0 -0 -0 -0 -0 -1 -1 -1 -1 -1 -1 -1 -0 -0 -0 -0 -0 -0 -0 -0 -0 -1 -0 -0 0 0 0 -0 -0 -0 0 0 -0 -0 1 1 0 0 0 0 0 1 1 1 0 0 0 0 -0 -0 0 0 0 0 0 0 0 0 0 0 0 nan
nan 0 0 0 0 0 0 0 0 0 0 -0 -0 -0 -0 -0 -0 -0 -0 -0 -0 -1 -1 -1 -1 -1 -0 -0 -0 0 0 -0 -1 -1 -0 -0 -0 -0 0 1 0 -0 -0 0 -0 -0 0 1 1 0 0 1 1 1 1 1 0 0 0 0 0 0 0 0 0 0 0 0 0 0 0 0 0 nan
nan 0 0 0 0 0 0 0 0 0 0 0 0 0 -0 -0 -0 -0 -0 -0 -0 -0 -0 -1 -1 -1 -0 -0 -1 -0 0 0 -0 -0 -0 -0 -1 -1 -0 0 0 -1 -0 1 1 -1 -1 0 1 1 1 2 1 1 1 1 1 1 0 0 0 0 0 1 1 0 0 0 0 0 0 0 0 nan
nan 0 0 0 0 0 0 0 0 0 0 0 -0 0 0 -0 -0 -0 -0 -0 -0 -0 -0 -0 -1 -1 -0 -0 -1 -0 -0 0 -0 -0 -0 -0 -0 -0 -0 -0 -1 -1 0 2 1 -1 -1 0 1 1 2 2 2 1 1 1 1 1 1 0 0 1 1 1 1 0 0 0 1 1 0 0 0 nan
nan 0 0 0 0 0 0 0 0 0 1 1 0 -0 -0 -0 -0 -0 -0 -0 -0 -0 -0 -0 -0 -0 -1 -1 -0 -0 -0 0 0 -0 -0 -0 -0 -0 -0 -1 -1 -1 0 1 1 0 -0 -0 1 1 2 2 1 1 1 1 1 1 1 0 0 1 1 1 1 0 0 1 1 1 1 1 0 nan
nan 0 0 -0 0 0 0 0 0 0 1 1 1 0 0 -0 -0 -0 -0 0 -0 -0 -0 -0 -0 -0 -0 -0 -0 -0 -0 0 0 -0 -1 -0 0 0 -1 -1 -0 -0 0 1 2 0 -0 0 1 1 1 2 2 2 1 1 1 1 0 -0 0 1 1 1 0 0 0 1 1 1 1 1 1 nan
nan 0 0 -0 0 0 1 1 0 0 0 0 1 0 0 0 -0 -0 0 -0 -1 -0 -0 0 -0 -0 -0 -0 -0 -1 -1 0 1 0 -1 -0 1 1 -1 -1 -0 0 0 0 1 0 -0 1 1 0 0 2 2 1 1 1 1 1 0 -0 0 1 1 1 0 0 0 0 0 0 0 0 0 nan
nan -0 -0 -0 -0 0 0 1 1 1 0 0 1 0 0 0 -0 -0 0 -0 -1 -1 0 0 -0 -0 -0 -0 -0 -0 -0 -0 1 1 -0 -0 0 0 -0 -1 -0 0 -0 -1 -0 0 0 1 0 -0 0 1 1 0 0 0 1 1 0 0 0 1 1 0 -0 0 0 0 0 0 -0 0 0 nan
nan -0 -0 -0 0 0 0 1 0 0 0 1 1 1 0 0 -0 -0 -0 -1 -1 -1 -1 -0 -0 -0 -0 -0 -0 -0 -0 -0 0 0 0 0 -0 -0 -0 -0 -0 -0 -1 -1 -0 1 1 0 -0 -0 0 1 0 0 0 1 1 1 0 0 0 0 0 0 -0 -0 0 0 0 0 0 0 0 nan
nan -0 0 0 0 0 0 1 0 0 0 1 1 1 0 0 0 -0 -0 -1 -1 -1 -1 -0 0 -0 -0 0 -0 -0 -1 -0 -0 -0 -0 -0 -0 -0 0 0 -0 -0 -1 -1 -0 0 0 0 -0 -0 1 1 -1 0 1 2 1 1 1 0 0 0 0 -0 -0 0 0 0 0 0 0 0 0 nan
nan 0 0 0 0 0 0 0 1 0 0 0 1 1 0 0 0 -0 -0 -1 -1 -1 -0 0 0 -0 0 0 0 -0 -0 -0 -1 -1 -0 -0 -0 -0 -0 0 0 -0 -1 -1 -0 0 0 -0 -1 -0 1 -0 -1 1 1 1 1 1 1 -0 -0 0 0 0 0 0 0 0 0 0 0 1 1 nan
nan 0 0 0 0 0 0 0 0 0 0 0 1 1 1 0 0 -0 -0 -1 -1 -1 0 0 -0 0 0 0 -0 -0 0 -0 -0 -1 -0 -0 -1 -0 -0 -0 -0 -0 -0 -1 -0 0 0 -0 -1 -0 0 -0 0 0 -0 0 1 0 -0 -0 1 1 1 0 0 1 1 1 1 1 1 1 1 nan
nan 0 0 0 1 1 1 0 0 0 0 0 0 0 1 1 0 -0 -1 -1 -1 -1 -0 0 0 0 0 0 0 0 -0 -0 -0 -0 -0 -0 -0 -0 -1 -1 -0 -0 -0 -1 -0 0 1 -0 -1 -0 -0 0 0 -1 -0 1 1 -0 0 1 1 0 0 0 0 1 1 1 1 1 0 -0 -0 nan
nan 0 -0 0 1 1 1 0 0 0 0 0 0 1 0 0 -0 -0 -1 -1 -1 -1 -0 0 0 0 0 -0 0 0 0 0 0 -0 -1 -1 -1 -0 -1 -1 -1 -0 -0 -1 -0 1 1 0 -0 -1 -0 1 -0 -1 0 1 0 1 1 1 0 1 1 0 0 1 1 0 0 -0 -1 -1 -1 nan
nan -0 -0 1 1 1 0 0 0 0 0 0 0 0 0 -0 -0 -0 -0 -0 -0 -0 -0 0 0 0 0 -0 0 0 1 0 0 -0 -1 -2 -1 -0 -0 -1 -1 0 0 -0 -0 0 0 0 0 -0 -0 1 0 -0 0 0 0 2 2 1 1 1 0 -1 0 0 -0 -0 0 0 -0 -0 0 nan
nan 0 1 1 1 1 0 0 0 0 1 0 -0 -0 -1 -0 0 0 -0 -0 -0 -0 -0 0 0 0 0 0 0 0 1 1 0 0 -0 -2 -2 -1 -1 -2 -2 -0 0 0 0 0 0 0 0 -0 -1 -0 -0 0 1 0 1 1 1 1 1 0 -1 0 0 -1 -0 1 1 0 -0 -0 0 nan
nan 1 1 1 1 0 0 0 -0 0 1 0 0 -0 -0 -0 0 0 -0 -0 -0 -0 -0 0 0 0 0 0 0 0 1 1 1 1 0 -1 -1 -1 -1 -2 -2 -1 -1 -0 0 0 0 1 1 -0 -1 -0 0 1 1 1 1 1 1 1 1 1 1 1 1 0 1 1 1 0 -0 -0 0 nan
nan 1 1 1 0 -0 0 0 -0 0 0 0 0 0 -0 -0 0 -0 -0 -0 -0 -0 0 0 0 0 0 0 0 0 0 1 1 1 0 -0 -0 -0 -0 -1 -1 -2 -2 -1 0 0 0 0 1 0 0 0 1 1 1 0 1 1 1 1 2 2 1 1 2 2 1 0 -0 -0 -0 0 0 nan
nan 1 1 0 -0 -0 0 0 0 -0 0 0 0 0 -0 0 0 -0 -0 -0 -0 -0 0 0 0 0 0 0 0 0 0 0 1 1 0 0 -0 0 0 -0 -1 -1 -1 -1 -1 0 1 0 0 1 1 1 1 1 1 0 0 1 2 3 3 2 2 3 3 1 0 0 1 0 0 0 0 nan
nan 0 0 0 0 -0 0 0 0 -0 -0 0 0 -0 -0 -0 -0 -0 -0 -0 -0 -0 0 0 0 1 1 0 0 0 0 0 0 0 -0 0 0 0 0 0 -1 -1 -1 -1 -1 -0 1 1 0 0 1 1 1 1 1 1 1 1 3 4 3 2 3 3 2 0 1 2 2 1 0 -0 0 nan
nan 0 1 0 0 0 -0 -0 0 -0 -0 0 0 -0 -0 -0 -0 -0 0 0 0 0 0 0 0 1 1 0 0 0 0 0 1 0 -0 -1 0 0 0 0 0 -0 -0 -0 -0 -0 0 0 0 -0 0 1 2 2 2 2 2 2 2 3 2 2 2 2 1 2 3 2 1 0 -0 -1 -0 nan
nan 0 1 1 0 0 0 0 -0 -0 -0 0 -0 -0 -0 -0 -0 0 0 0 0 0 0 0 0 1 1 0 0 0 0 0 1 1 -0 -1 -1 -0 -0 0 1 0 -0 -0 0 -0 -0 0 -0 -0 -0 1 2 2 2 2 3 3 2 1 1 2 2 2 2 3 3 1 0 -0 -1 -0 1 nan
nan 0 1 0 1 1 0 -0 -0 -0 -0 -0 -0 -0 -0 -0 0 0 -0 -0 -0 -0 0 0 0 0 1 0 0 0 0 0 1 1 0 -1 -1 -0 -0 -0 0 1 0 0 0 0 0 0 -0 -0 0 1 2 1 1 1 2 2 2 1 1 2 3 2 2 2 1 0 0 0 0 1 2 nan
nan 0 1 1 1 1 0 -0 -0 -0 -0 -0 -0 -0 0 0 -0 -0 -0 -0 -0 0 0 0 0 0 0 1 0 0 0 0 1 1 1 -0 -1 -0 -0 -0 -0 0 0 0 0 0 0 0 0 0 0 1 1 1 1 1 1 1 1 1 2 2 2 1 0 -0 -1 -0 0 1 1 2 2 nan
nan 1 1 1 1 0 0 0 -0 -0 -0 -0 -0 -0 -0 -0 -0 -0 -0 -0 -0 -0 0 0 0 0 0 0 0 0 0 0 1 1 1 0 -0 -0 -0 -0 -0 0 0 0 0 0 0 0 0 0 1 1 1 1 2 2 2 1 1 1 1 1 1 0 -1 -1 -1 -0 0 1 1 1 1 nan
nan 1 1 0 0 0 1 0 -0 -1 -0 -0 0 -0 -0 -0 -0 0 0 0 -0 -0 0 0 1 0 0 0 0 1 1 1 1 1 1 0 0 -0 -0 -0 0 0 0 0 0 0 0 0 0 0 1 1 1 1 1 1 1 1 1 1 1 1 1 0 0 -0 -0 0 1 1 0 -0 0 nan
nan 0 0 0 0 0 1 0 -0 -0 -0 0 -0 -0 -0 -0 0 0 0 0 0 -0 0 0 0 0 0 1 1 0 0 1 1 1 0 0 0 0 -0 -0 0 0 0 0 0 -0 0 0 0 0 0 0 0 1 1 1 1 0 0 0 -0 -0 -0 0 0 0 1 1 1 -0 -1 -0 0 nan
nan -0 -0 -0 -0 0 0 0 -0 -0 -0 0 0 -0 -1 -0 0 1 1 0 0 0 0 0 0 0 0 0 0 0 0 1 1 1 1 0 0 0 0 -0 0 0 0 0 -0 -0 -0 0 0 0 0 0 0 0 0 0 0 -0 -1 -1 -1 -1 -1 -0 0 1 1 1 0 -0 -0 1 0 nan
nan 0 -0 -0 -0 -0 -0 -0 -1 -1 -0 0 0 -0 -0 -0 0 1 1 1 0 -0 -0 0 1 1 1 0 0 0 0 0 1 1 1 0 0 0 0 0 0 0 0 0 -0 -0 -0 -0 0 0 0 -0 -0 -0 -0 -0 -0 -1 -1 -1 -1 -1 -0 -0 0 0 0 0 -0 0 1 1 0 nan
nan nan nan nan nan nan nan nan nan nan nan nan nan nan nan nan nan nan nan nan nan nan nan nan nan nan nan nan nan nan nan nan nan nan nan nan nan nan nan nan nan nan nan nan nan nan nan nan nan nan nan nan nan nan nan nan nan nan nan nan nan nan nan nan nan nan nan nan nan nan nan nan nan nan
Wind_Speed
11 12 12 13 13 14 15 16 17 18 18 18 17 17 17 17 16 15 16 17 15 13 12 12 12 11 12 14 15 16 16 16 15 15 14 14 13 12 11 12 14 15 14 12 11 11 11 11 10 8 7 6 4 4 4 5 6 7 7 7 6 6 5 4 4 4 4 4 4 3 3 3 4 4
11 11 11 12 12 12 13 15 16 17 18 18 18 19 18 18 17 17 17 19 18 16 14 12 12 11 10 11 12 12 12 14 15 16 16 15 13 13 13 14 15 15 14 13 12 11 11 11 11 9 7 6 4 4 4 5 6 7 7 7 6 6 5 5 4 4 4 3 3 2 2 3 4 4
11 11 11 12 12 12 13 13 14 15 16 17 18 18 18 18 19 18 18 21 20 17 14 12 12 12 10 10 11 10 11 15 18 18 18 16 14 14 15 15 16 16 16 15 13 12 12 12 12 10 8 6 5 4 4 5 5 6 7 6 6 6 6 5 4 3 3 2 1 1 2 3 4 4
12 11 11 12 12 12 13 13 14 14 14 15 16 17 17 18 19 18 18 22 22 19 17 16 16 15 13 11 11 9 12 17 19 18 18 16 15 16 16 16 17 17 16 16 15 13 12 12 12 11 9 7 6 5 4 4 5 6 6 6 6 6 6 5 4 3 2 1 0 1 2 3 4 5
12 12 12 12 11 12 13 14 14 14 13 14 14 15 17 18 19 19 20 22 22 20 18 17 18 18 17 14 11 9 12 17 17 18 19 17 15 17 18 18 18 17 17 17 16 15 14 13 13 12 10 8 7 6 5 4 5 6 6 6 6 6 6 5 4 3 2 1 1 2 3 4 4 5
12 12 13 13 12 13 14 14 14 13 13 14 15 15 16 17 18 17 18 19 21 20 19 17 16 18 18 16 15 13 13 14 15 18 20 19 17 18 19 19 19 19 18 18 18 17 16 14 14 13 11 9 8 7 6 5 4 5 6 6 6 6 6 5 4 4 3 1 2 3 4 4 5 6
12 12 12 11 11 13 14 14 13 13 14 15 16 16 16 18 18 17 16 17 19 21 20 19 17 17 17 15 15 14 13 13 14 17 20 21 19 20 20 20 20 20 20 20 20 20 18 16 15 13 12 11 9 8 7 6 5 5 6 6 6 6 6 5 4 4 3 2 3 4 5 5 6 7
12 13 12 9 9 10 11 12 12 12 13 14 15 15 16 18 18 19 19 18 19 20 20 20 19 18 18 16 15 15 14 14 14 16 20 21 21 21 20 20 20 21 22 22 22 22 19 17 16 14 13 12 11 10 8 8 7 6 5 6 6 6 6 5 5 5 4 3 4 5 6 6 7 7
14 17 15 12 12 11 11 12 12 12 13 15 15 16 16 17 18 19 20 19 19 19 19 19 19 18 18 19 17 15 16 17 17 18 21 22 23 23 22 22 22 22 22 22 23 24 21 18 17 16 15 13 12 12 10 9 9 7 6 6 6 6 6 6 6 5 4 5 5 6 7 7 8 8
16 18 16 14 15 15 16 17 17 17 18 19 19 18 18 17 17 17 18 19 19 20 20 19 19 17 17 20 19 16 16 16 17 21 24 23 23 24 23 24 25 23 22 21 21 24 23 20 19 18 17 16 15 14 12 11 10 9 7 6 6 6 6 6 6 5 6 6 6 7 8 8 9 9
17 16 14 15 16 17 18 19 20 21 22 23 22 22 22 21 19 18 18 18 18 19 20 21 20 20 19 20 20 17 16 15 17 21 23 22 23 25 24 25 26 25 25 23 21 22 23 22 21 20 19 18 17 16 15 13 12 10 8 7 6 6 6 7 7 6 7 7 7 8 9 9 10 9
14 13 13 14 14 14 15 16 19 20 22 23 24 24 25 25 24 24 22 21 20 20 20 20 20 20 19 19 18 16 16 15 15 19 21 21 24 26 26 26 27 27 27 25 22 22 23 24 24 23 22 21 20 18 17 15 14 13 10 8 7 7 7 7 7 8 8 9 9 10 10 10 10 10
13 12 12 13 13 12 13 16 18 19 19 20 22 23 24 26 27 28 28 26 24 23 22 20 19 18 18 18 17 16 16 15 14 15 18 21 25 28 27 27 28 27 26 26 24 22 22 25 27 26 25 24 22 20 19 18 16 15 12 10 9 9 8 8 8 9 10 10 10 11 12 12 11 11
13 12 12 12 12 13 14 17 17 16 16 17 18 20 22 23 25 27 29 30 29 26 25 22 19 17 16 16 16 16 16 16 14 13 16 19 23 25 26 26 27 28 26 26 25 23 23 24 27 28 27 26 25 22 20 19 18 16 14 12 10 10 9 9 10 10 11 12 12 12 13 13 12 12
12 12 12 12 13 14 15 16 17 16 16 16 17 18 20 19 20 21 23 26 28 28 27 26 22 18 16 16 16 15 16 16 14 12 15 18 21 22 21 22 26 29 28 26 26 26 25 25 27 29 29 28 26 24 22 21 19 18 16 14 12 11 10 10 11 12 12 13 13 14 14 14 14 13
12 12 12 13 15 15 16 16 17 17 16 16 16 17 17 15 15 15 16 18 20 23 25 26 25 23 20 18 16 14 15 16 16 15 14 16 19 20 19 20 24 27 27 26 26 28 27 26 28 31 30 29 28 26 24 22 21 19 18 16 14 12 11 11 12 13 14 14 15 15 16 16 15 15
13 13 15 16 17 17 16 16 17 17 17 16 16 16 17 16 15 15 13 13 15 17 19 21 23 24 23 22 21 20 19 18 19 19 18 17 18 18 17 18 21 25 27 27 27 29 27 26 27 31 31 31 30 28 26 24 22 21 20 18 16 14 12 12 13 14 15 16 17 17 17 17 17 16
15 16 17 18 18 19 19 17 17 18 18 18 17 16 16 15 15 15 13 13 13 13 15 17 19 20 21 22 23 23 23 22 22 22 21 19 20 19 18 18 18 21 26 28 29 30 29 26 26 30 32 33 32 30 28 26 24 23 22 20 19 16 14 13 14 15 16 17 18 18 19 19 18 17
17 17 17 18 19 20 19 18 17 18 19 20 20 20 19 16 14 14 15 15 15 15 16 17 18 18 18 19 19 20 21 22 22 22 21 20 19 18 18 19 19 20 24 29 30 30 30 27 26 30 34 35 34 32 29 27 27 25 24 22 21 18 16 16 16 17 18 19 20 20 20 20 20 19
17 17 17 18 19 19 20 19 19 20 21 21 21 22 22 21 18 18 18 19 18 17 17 17 18 18 17 17 17 17 19 20 20 21 22 22 21 19 17 19 22 23 25 28 30 31 31 28 26 29 34 36 36 33 31 30 29 28 26 24 23 21 18 17 18 18 19 20 21 21 21 21 21 20
17 16 16 18 19 20 22 22 22 22 23 23 23 23 25 25 23 22 21 19 17 14 14 15 15 15 16 17 17 17 18 20 21 22 24 24 24 23 21 19 21 23 24 27 28 30 31 29 26 28 32 36 36 34 33 33 32 30 28 27 25 23 21 19 19 19 20 21 22 22 22 22 22 21
14 15 17 19 21 23 24 24 23 21 22 23 23 23 24 25 24 21 20 20 18 15 15 15 15 16 18 20 20 20 20 20 20 21 23 23 24 26 26 24 23 23 25 27 26 28 30 29 29 30 31 33 36 35 34 35 35 33 31 29 27 25 23 22 21 20 20 21 22 23 23 23 23 23
14 16 18 19 20 21 23 24 22 20 20 21 22 22 22 22 22 21 21 23 22 19 17 18 19 19 20 21 22 23 23 23 22 22 22 22 23 26 28 28 27 26 27 28 27 29 31 31 32 32 31 32 34 34 35 36 36 35 33 31 29 28 26 24 23 21 20 21 22 24 24 25 25 24
16 17 18 18 19 19 20 20 20 20 21 22 23 23 22 22 22 22 23 24 24 23 22 21 20 20 20 20 21 21 21 21 20 19 19 19 21 24 26 28 29 30 29 28 27 29 32 33 34 34 32 31 31 31 34 37 37 37 35 33 32 30 28 27 25 23 22 22 23 24 25 25 26 25
16 17 18 19 21 21 21 22 23 23 24 25 24 23 23 23 23 24 26 26 25 25 24 22 21 21 20 19 19 18 19 17 15 15 16 17 19 22 25 26 29 31 31 29 28 29 32 34 35 34 33 33 32 30 32 36 37 38 36 35 34 33 31 29 28 27 26 25 24 25 25 25 26 25
17 18 20 21 22 23 24 25 27 26 26 26 27 26 25 25 26 26 27 27 26 25 23 22 21 20 18 16 16 17 18 18 18 17 18 18 17 19 22 24 27 28 29 29 29 31 33 35 35 34 34 35 34 33 33 33 35 37 37 36 35 35 33 32 31 29 28 27 26 26 25 25 25 24
20 21 22 23 24 24 24 25 26 27 27 28 29 29 29 28 28 28 27 26 25 24 22 21 20 17 15 15 16 17 18 20 21 20 19 20 20 21 21 22 25 27 29 29 28 29 32 35 35 33 34 35 36 36 35 34 34 35 36 37 38 37 37 35 33 31 30 29 27 26 26 27 26 24
23 23 23 23 25 26 26 27 27 28 29 29 30 30 31 30 30 29 27 24 22 21 20 20 18 15 13 15 17 18 20 22 23 23 22 21 23 25 26 25 24 26 29 31 30 28 30 34 35 33 33 35 37 36 35 34 34 34 34 36 40 41 40 38 35 33 32 30 28 28 28 29 28 27
23 22 22 24 25 24 24 25 28 30 31 32 32 32 32 32 32 30 26 22 20 20 18 16 14 12 14 18 20 22 24 25 25 27 28 25 22 23 26 28 28 29 29 29 30 29 29 32 35 33 33 36 38 36 35 33 32 33 35 37 40 41 42 41 38 36 34 31 29 29 28 28 28 30
23 20 21 24 25 22 19 19 21 23 25 27 29 31 32 31 29 26 24 20 17 15 14 13 12 14 17 21 23 24 26 27 28 30 29 26 22 20 21 25 28 30 30 30 30 28 26 29 34 33 33 36 38 37 36 34 32 33 36 38 39 41 43 44 41 38 35 33 30 28 26 25 27 30
21 19 21 23 22 20 18 17 18 19 20 20 21 23 25 26 23 20 18 16 13 12 11 11 12 15 19 21 22 24 25 26 28 27 24 22 22 21 20 20 23 26 28 31 32 30 26 28 34 35 34 36 38 37 36 34 33 35 36 38 40 40 40 42 43 41 38 35 32 28 26 27 29 31
19 19 21 21 18 17 18 19 19 19 18 16 15 15 15 17 17 14 12 10 10 11 13 13 15 19 21 22 23 23 24 25 27 25 21 20 21 22 21 21 21 21 23 27 31 33 30 30 34 37 36 35 37 39 38 35 34 35 36 36 39 41 40 42 44 43 40 36 32 29 29 30 32 32
19 20 19 17 15 16 18 20 20 19 16 15 16 15 12 11 10 9 9 10 12 14 14 14 16 20 22 22 22 22 22 23 24 23 21 19 19 20 21 22 21 20 20 22 25 30 32 31 32 36 37 37 38 40 39 38 36 36 36 37 38 41 43 43 43 44 42 38 33 31 31 32 32 31
18 19 18 16 16 17 18 19 20 18 16 16 16 16 14 12 10 9 11 14 15 14 13 14 16 19 20 20 19 20 20 21 22 21 20 18 16 17 19 20 21 20 20 20 21 25 29 29 29 34 38 39 40 41 41 40 39 37 38 39 39 40 43 44 45 45 42 38 34 33 32 33 33 32
19 19 19 19 18 17 17 18 18 17 16 17 17 15 15 16 15 13 13 13 13 13 14 14 15 16 18 18 18 19 20 21 20 19 18 16 14 14 16 17 19 19 18 18 19 21 23 24 26 31 36 37 38 40 41 42 41 39 39 41 40 40 42 44 44 43 41 38 35 33 33 32 33 32
20 21 21 20 18 18 18 18 18 18 17 17 17 16 15 15 16 15 15 15 13 12 13 13 12 13 15 17 18 18 19 20 20 17 15 14 12 12 13 15 16 16 16 15 16 17 19 20 21 27 33 36 35 36 38 39 40 39 38 38 39 39 40 41 42 42 41 39 35 32 33 33 33 32
23 23 23 22 21 20 19 18 18 18 18 17 17 16 16 15 16 16 17 17 16 15 15 15 13 14 15 17 18 18 18 19 20 17 14 12 12 11 12 14 14 14 14 13 12 13 15 17 19 23 29 34 35 34 34 34 35 35 33 32 34 36 38 40 42 41 40 37 34 32 31 31 30 28
26 25 24 23 22 20 18 18 18 18 18 18 17 17 17 17 17 16 16 17 17 16 15 13 12 13 14 16 16 16 16 17 20 19 14 12 12 11 12 13 13 13 12 11 11 11 13 16 18 22 27 31 34 35 34 31 30 30 29 28 31 34 37 40 41 40 37 35 32 30 28 26 24 19
26 25 24 24 23 21 19 19 19 18 19 19 19 18 18 18 17 16 16 17 15 13 12 12 11 11 12 12 12 14 15 17 19 18 14 12 12 11 11 12 12 11 11 10 10 11 13 17 19 22 25 28 31 34 35 33 30 29 28 27 30 34 38 40 41 40 38 35 31 28 25 23 20 15
26 25 24 23 22 22 22 21 21 19 19 19 20 19 19 18 17 16 17 16 14 13 15 16 14 12 13 13 13 15 18 18 17 15 14 13 12 11 11 11 10 9 8 8 8 10 14 18 20 20 22 24 26 27 27 27 26 26 26 26 27 31 34 36 38 38 36 33 29 25 23 21 20 18
27 25 21 19 20 21 21 20 20 20 19 19 20 19 19 19 19 18 17 16 15 15 16 17 14 14 16 17 16 15 16 16 14 13 14 13 11 10 10 9 8 7 6 6 7 11 15 17 17 17 18 19 20 21 22 23 24 25 25 25 26 27 29 31 31 30 29 29 29 27 25 25 23 21
26 23 19 18 20 21 20 18 17 17 18 19 20 19 20 20 21 20 19 18 18 18 17 15 13 14 16 17 14 12 14 15 13 13 14 15 12 9 9 8 6 4 3 4 8 10 12 13 14 14 15 16 17 18 21 24 27 27 26 25 26 27 28 28 27 25 26 29 31 31 29 28 25 22
25 22 20 21 22 22 21 20 19 17 17 18 19 19 19 21 22 22 21 20 19 20 20 19 17 16 17 16 13 11 14 16 15 14 16 17 12 8 7 6 5 3 2 4 6 8 9 9 10 11 12 13 15 17 21 25 27 27 27 26 26 27 29 30 30 29 28 29 30 29 29 29 29 27
28 26 24 23 24 23 22 21 22 22 20 19 19 20 20 20 20 20 19 19 18 18 19 21 20 18 17 16 14 13 15 18 16 14 15 16 12 8 6 5 5 5 5 5 6 8 9 9 11 12 12 13 14 17 19 22 23 24 26 27 29 30 31 32 32 32 32 31 31 30 29 28 26 25
31 29 26 24 25 25 23 22 23 23 22 21 21 21 21 21 20 20 21 21 20 19 20 21 21 19 17 16 16 16 17 18 17 15 15 14 12 9 7 6 5 6 8 7 8 10 11 13 14 14 14 14 15 16 17 19 20 23 25 27 29 30 31 32 33 33 33 32 29 25 23 21 19 19
Wind_Direction
256 255 255 256 257 257 256 256 255 253 253 253 255 259 260 261 263 268 271 267 263 261 260 270 277 268 264 266 259 252 250 246 245 257 265 254 238 235 234 228 226 227 228 228 228 230 233 231 227 226 232 243 261 288 309 324 327 325 321 317 316 316 315 317 321 329 333 336 348 9 30 53 70 81
257 259 260 262 263 263 261 260 261 260 259 257 258 261 262 263 265 263 265 268 266 266 267 273 281 277 272 265 252 248 245 235 238 256 265 256 239 232 231 225 223 225 227 230 232 229 231 232 227 226 230 238 256 280 303 321 328 330 325 318 315 312 311 315 318 325 328 337 356 15 47 73 89 100
259 261 263 266 268 269 268 267 266 264 263 262 261 262 260 261 264 263 264 266 267 269 270 272 282 288 284 266 253 253 246 236 243 256 258 248 233 228 228 221 218 223 228 235 236 232 232 234 231 228 229 237 251 269 296 318 328 332 327 318 313 309 309 311 314 314 316 335 5 36 78 94 107 117
260 261 263 266 268 271 270 268 268 266 266 265 262 263 261 258 261 265 266 266 266 267 265 268 279 285 281 271 264 256 242 239 243 247 247 240 230 229 228 221 218 222 228 232 233 232 234 236 235 232 230 236 247 262 287 312 329 331 325 316 309 305 305 305 301 296 296 321 50 124 111 119 129 130
263 262 260 261 262 266 270 270 269 269 269 268 265 265 263 260 261 263 263 265 269 271 271 273 278 281 279 274 266 247 236 242 241 233 235 236 231 229 229 226 224 224 226 229 230 232 234 235 235 232 230 234 244 259 279 304 324 328 323 315 306 301 300 296 287 279 275 238 167 152 137 140 142 140
256 261 263 265 263 261 263 266 269 268 265 266 268 270 269 267 265 263 262 266 272 276 278 279 280 282 280 275 271 258 235 235 238 230 233 238 233 229 229 230 230 229 230 230 230 232 233 233 233 231 229 232 240 251 271 294 312 323 322 313 304 298 293 284 271 264 259 208 174 164 154 154 151 147
262 263 264 271 274 268 263 263 265 266 266 269 271 270 270 271 270 269 270 272 276 279 280 279 279 280 279 277 275 262 234 226 238 237 237 239 236 233 232 232 234 236 236 236 234 234 233 232 231 230 229 232 239 250 265 282 295 312 318 312 303 295 286 278 262 252 244 195 178 174 164 162 157 153
255 246 247 253 263 268 269 269 269 269 271 273 273 271 268 271 275 278 279 279 280 281 279 277 279 279 280 279 275 267 255 246 240 234 237 241 238 235 234 235 236 239 241 240 238 236 234 233 230 229 229 233 240 246 257 273 283 295 308 307 300 290 280 270 254 246 230 195 187 180 170 167 162 157
236 237 242 249 255 260 262 265 268 270 271 272 272 273 273 276 279 278 277 277 278 278 277 279 283 282 280 280 277 273 266 254 241 233 235 239 238 233 233 237 238 240 242 241 238 234 232 229 226 226 228 231 238 243 249 262 272 280 291 298 292 284 277 264 249 239 216 199 193 182 175 172 166 162
245 248 250 254 258 262 264 267 271 271 270 270 270 273 275 277 276 275 276 278 277 275 274 278 282 281 280 283 283 279 267 255 248 240 233 232 237 235 233 235 236 237 242 243 240 237 231 225 222 223 226 228 233 239 244 252 262 269 275 285 283 274 269 259 246 231 211 205 199 185 180 177 169 167
250 256 262 265 267 271 274 276 277 275 273 273 273 273 274 274 274 274 277 279 278 274 273 276 279 280 282 282 281 280 272 262 255 246 235 231 235 233 229 232 235 237 239 241 241 239 233 225 222 222 223 227 231 235 240 244 252 259 263 270 274 266 258 253 242 227 213 208 201 189 184 179 173 171
259 265 271 275 278 279 277 274 274 276 278 278 276 274 271 270 269 269 270 273 276 276 276 278 280 280 279 278 278 280 276 268 257 248 244 242 238 231 227 232 237 239 241 242 243 243 235 226 223 223 223 224 229 234 238 241 247 253 256 260 264 257 247 242 234 223 216 210 203 194 187 181 177 175
263 268 272 277 280 281 279 280 284 287 286 285 283 279 274 271 269 266 265 267 270 272 274 278 282 282 279 277 281 286 283 277 268 256 253 251 240 230 226 230 235 238 241 243 244 245 241 231 225 225 224 225 228 232 238 243 245 248 252 254 259 257 244 233 226 219 214 211 205 198 191 184 179 177
266 274 279 284 287 288 290 295 299 299 295 291 290 288 286 283 278 272 269 267 267 268 269 271 276 283 285 284 285 288 288 285 276 263 261 261 247 230 221 223 231 237 239 239 243 246 244 237 230 228 227 227 229 232 237 242 244 246 249 249 252 253 244 232 224 216 212 211 206 200 193 186 181 179
272 278 284 288 289 294 299 302 304 303 299 296 296 299 301 300 291 282 276 271 268 267 267 266 266 269 279 285 287 291 297 301 300 285 273 271 261 242 227 221 227 236 237 236 241 247 245 240 236 233 231 230 230 233 236 239 240 242 245 245 244 245 241 231 223 215 211 210 206 201 195 188 182 181
271 277 283 285 288 293 299 303 306 308 307 306 305 304 304 305 301 295 289 284 278 275 272 269 266 263 264 266 270 279 291 298 303 297 283 277 271 259 252 243 235 237 241 240 243 248 249 246 240 235 232 231 231 233 234 235 237 239 241 242 241 238 236 231 224 217 212 210 206 201 196 190 185 183
269 273 276 279 283 286 286 290 298 302 301 300 301 301 298 296 295 294 293 291 289 286 282 278 273 270 266 264 261 263 269 272 278 284 284 285 282 273 272 265 246 239 245 247 247 250 251 250 243 235 232 231 231 231 231 232 234 236 237 240 239 236 234 229 222 218 213 211 207 202 197 192 187 184
264 267 273 278 281 284 285 285 291 297 298 294 291 293 296 298 297 293 290 287 285 287 288 287 284 278 273 272 269 266 265 264 266 272 275 278 281 277 276 274 260 249 252 251 248 249 252 252 246 238 234 232 229 230 230 230 232 233 234 237 238 233 228 223 219 218 215 212 209 203 198 194 189 186
268 273 277 280 282 287 289 286 286 290 293 293 291 287 285 287 292 293 290 287 284 285 286 288 290 288 281 278 276 271 269 266 263 263 263 264 268 271 272 269 259 253 254 252 247 247 251 253 247 240 236 232 228 227 227 227 229 231 231 233 234 230 225 220 217 216 214 212 209 205 200 196 192 188
272 276 277 277 279 284 287 288 289 290 290 289 290 288 283 279 278 276 276 279 280 282 287 290 294 297 293 287 282 276 272 270 266 261 258 254 254 257 263 265 258 253 251 250 246 244 246 251 247 240 238 235 231 226 224 224 225 227 229 230 228 225 221 219 217 215 213 212 209 204 201 198 195 191
272 276 279 283 288 291 290 288 289 294 295 291 289 289 287 285 281 275 275 281 281 274 278 287 293 294 290 285 281 276 270 269 268 264 259 255 252 252 253 251 251 250 247 245 244 241 243 248 245 238 237 238 235 227 221 223 224 224 227 228 226 221 216 214 216 214 212 210 208 204 200 198 196 194
276 280 283 288 294 296 291 285 285 293 297 294 291 289 288 287 284 276 273 279 277 263 258 263 266 270 273 274 275 276 272 269 266 263 262 260 256 253 249 245 246 251 251 248 245 241 241 242 239 234 232 235 236 230 224 224 225 224 225 226 224 221 215 211 213 214 213 211 209 206 203 200 198 196
276 281 283 286 292 295 291 285 285 291 296 294 290 287 285 287 289 285 279 277 277 272 267 265 266 270 275 277 279 281 281 277 271 265 264 263 260 256 251 247 248 253 254 252 248 242 240 238 237 236 231 229 232 230 225 225 226 226 227 226 223 220 216 211 210 212 215 214 210 209 207 204 201 199
271 279 285 287 288 293 294 288 284 287 289 288 285 282 282 286 291 293 290 286 284 282 280 279 280 282 283 283 284 285 285 282 278 274 269 263 261 261 255 248 246 248 251 253 251 244 241 238 237 239 237 233 233 232 227 226 227 227 227 225 223 220 217 213 210 208 211 215 214 212 210 208 206 204
267 275 280 280 280 284 288 287 286 286 285 283 280 278 280 285 290 293 293 292 288 284 281 283 287 290 292 292 292 294 293 288 281 277 274 267 260 260 258 253 247 247 249 252 251 247 243 238 235 235 234 231 233 234 230 226 226 227 226 224 222 221 219 216 212 207 208 211 212 212 212 211 210 208
259 266 269 274 278 281 282 281 281 282 283 282 280 280 281 284 287 290 291 291 288 284 284 288 292 296 299 296 289 287 287 284 275 263 259 262 263 261 259 255 250 249 250 251 250 248 245 241 239 235 230 227 229 231 230 227 226 224 223 221 221 222 221 219 215 210 208 209 210 211 212 213 213 211
257 264 270 278 284 285 282 278 277 279 280 279 278 279 281 283 285 287 288 288 286 283 283 287 292 297 298 295 291 288 284 281 279 271 259 254 256 258 259 256 251 248 247 248 249 249 247 244 242 240 235 231 228 226 227 229 228 224 222 221 220 220 219 218 216 213 210 211 213 212 210 210 209 207
259 267 277 288 293 291 285 279 276 276 276 275 274 274 276 278 281 284 285 285 282 278 279 284 289 293 291 287 286 284 280 276 277 278 274 265 258 256 257 255 251 247 245 243 245 249 249 244 242 243 241 237 234 232 231 232 232 230 225 221 218 218 218 216 214 213 210 210 212 212 210 209 207 204
261 270 282 292 295 293 289 283 277 274 273 272 271 271 272 275 277 279 281 281 275 272 276 281 282 279 279 280 281 281 282 282 280 281 282 280 271 260 255 253 249 249 250 246 243 248 250 244 241 242 240 238 238 240 238 236 238 237 230 224 221 219 218 217 214 212 210 209 210 212 212 213 213 210
261 271 283 289 290 291 295 295 291 287 283 279 276 274 273 273 274 274 274 272 268 270 274 273 269 270 274 279 285 287 287 286 286 286 286 286 284 276 266 258 251 248 250 250 249 252 253 244 240 242 242 238 238 239 240 240 241 238 231 227 224 219 216 216 214 211 209 208 209 211 212 215 218 216
261 271 278 283 286 290 296 303 307 306 300 294 290 284 276 272 270 270 268 264 262 270 274 271 269 271 272 275 283 289 291 294 297 296 291 291 297 299 292 277 261 251 247 246 248 254 255 244 236 237 241 241 238 238 239 240 242 240 233 228 226 223 220 218 215 211 209 207 207 208 209 214 218 217
258 265 272 279 285 290 294 297 302 303 301 301 305 302 288 274 266 261 257 252 252 263 274 272 266 264 267 276 287 296 303 306 306 302 295 295 300 303 299 292 282 267 253 245 244 246 249 246 237 234 238 243 242 237 233 232 236 239 236 231 228 226 223 219 215 211 207 204 203 205 208 214 217 215
253 261 269 274 280 285 290 293 297 298 298 299 301 301 298 289 273 256 254 263 273 282 282 269 258 261 270 281 293 303 311 313 310 303 296 293 294 293 291 291 291 284 269 255 246 242 241 244 241 234 233 237 240 238 233 230 232 235 236 234 230 225 222 219 216 210 204 200 200 203 208 213 214 212
248 256 261 262 266 273 279 282 285 286 281 279 281 281 281 282 274 254 249 258 268 278 277 265 263 271 277 283 291 299 306 311 314 308 298 292 290 287 285 283 284 285 277 264 254 245 241 242 241 232 228 228 232 233 234 235 236 236 235 233 231 227 222 218 213 209 204 200 200 203 207 211 210 208
246 253 259 262 266 271 272 274 277 277 269 267 270 268 262 265 268 263 255 249 247 256 268 273 279 282 278 279 289 297 301 307 312 306 297 297 297 292 289 285 282 284 281 268 258 251 245 243 239 231 227 226 226 226 228 232 235 235 230 225 224 223 220 214 210 207 203 200 202 205 207 207 206 206
251 258 261 261 263 267 269 270 271 270 264 260 261 258 252 253 258 261 260 257 250 249 257 265 278 284 277 278 291 299 301 308 312 303 291 297 305 302 300 297 290 286 282 271 261 255 250 249 245 236 229 226 223 221 221 225 229 233 232 226 219 217 216 212 207 204 202 200 202 205 206 205 204 204
254 261 262 263 266 268 270 269 266 262 259 255 253 254 254 253 253 254 257 257 252 248 250 259 274 282 278 281 291 296 296 305 313 306 291 291 301 307 310 310 302 290 281 272 265 261 256 252 248 241 233 225 218 213 212 215 218 222 228 230 223 217 212 207 201 198 199 201 201 203 205 205 204 204
255 260 262 266 271 270 266 265 264 260 258 256 256 256 255 255 255 255 255 255 254 253 256 264 274 279 278 279 284 286 290 303 311 310 297 287 293 303 311 315 312 298 284 273 265 260 254 246 240 237 232 225 217 211 209 208 206 207 212 220 221 213 205 200 196 193 194 198 200 200 201 200 198 201
255 261 265 269 271 269 264 261 259 257 254 253 253 254 255 255 254 252 252 255 257 255 255 255 257 266 273 274 274 281 291 300 306 307 298 287 291 304 310 314 315 305 288 275 262 247 236 231 227 224 224 223 222 219 215 211 207 203 201 205 209 205 199 195 193 192 193 194 195 195 194 191 191 194
256 262 268 270 268 266 264 259 253 251 251 250 249 250 251 251 250 247 248 252 253 249 252 255 255 254 256 258 266 281 289 291 294 295 288 282 287 300 308 313 316 308 290 272 253 231 220 218 218 218 218 219 220 220 216 209 203 198 195 196 200 204 203 198 194 193 193 192 191 191 191 193 194 196
259 262 267 269 266 267 268 259 247 244 246 249 252 252 250 249 248 246 244 246 246 246 252 259 258 252 250 254 263 273 278 280 282 282 281 284 289 294 300 311 318 309 285 256 231 218 212 213 215 216 216 217 215 210 204 196 189 185 185 188 191 197 201 199 195 193 193 191 190 192 194 195 195 197
257 261 266 269 271 274 272 257 242 241 245 247 250 251 248 249 251 249 247 247 244 241 245 251 251 249 252 258 264 264 262 265 270 271 276 284 290 289 289 298 311 309 278 230 214 213 213 214 215 213 212 213 212 206 198 192 186 182 180 182 184 188 192 193 194 196 198 195 194 197 196 194 193 198
248 252 259 264 268 272 268 252 242 247 252 251 251 250 247 248 251 251 251 251 248 244 246 247 246 246 253 261 267 261 253 256 260 261 265 273 282 290 291 288 284 276 246 209 205 207 206 204 206 205 202 202 205 205 198 192 188 184 180 180 183 187 190 193 196 198 199 199 200 203 203 199 199 203
248 246 250 254 258 262 261 249 242 248 253 252 252 254 252 250 249 248 250 254 251 246 246 249 248 245 247 254 259 254 250 256 260 256 255 263 271 281 290 284 259 236 226 214 206 201 194 190 192 194 191 189 194 199 197 192 188 186 184 184 188 190 192 195 198 199 199 202 204 205 204 202 204 209
254 250 248 248 249 251 252 246 242 246 250 249 249 252 253 253 252 252 253 254 251 244 244 248 250 247 243 244 248 248 249 257 263 259 252 254 257 257 265 276 253 225 223 223 214 201 188 182 184 190 193 193 194 199 202 201 198 197 197 198 200 200 199 200 203 204 204 203 202 200 201 203 210 220
Height
1542 1542 1543 1543 1543 1543 1544 1544 1544 1545 1545 1545 1546 1546 1545 1545 1545 1545 1544 1543 1544 1544 1545 1546 1544 1545 1547 1546 1547 1547 1547 1547 1547 1548 1549 1549 1548 1548 1548 1548 1548 1548 1549 1550 1550 1550 1550 1551 1551 1551 1551 1551 1551 1551 1550 1550 1549 1549 1548 1548 1548 1548 1548 1548 1548 1548 1548 1548 1548 1548 1548 1548 1548 1548
1540 1540 1540 1540 1541 1541 1542 1542 1542 1543 1543 1544 1544 1544 1544 1544 1544 1544 1543 1541 1542 1543 1544 1545 1543 1544 1546 1545 1544 1545 1545 1546 1547 1547 1548 1548 1547 1547 1547 1547 1547 1547 1548 1548 1548 1549 1549 1549 1550 1550 1550 1550 1550 1550 1549 1549 1549 1548 1547 1547 1547 1547 1547 1547 1547 1547 1547 1548 1548 1548 1548 1548 1548 1548
1538 1538 1538 1539 1539 1539 1540 1540 1540 1541 1541 1542 1542 1542 1543 1542 1541 1541 1541 1539 1540 1541 1543 1544 1542 1542 1544 1544 1543 1544 1544 1544 1545 1546 1546 1546 1546 1545 1545 1545 1545 1546 1546 1547 1547 1548 1548 1548 1548 1549 1549 1549 1549 1549 1549 1549 1548 1547 1547 1547 1547 1547 1547 1547 1547 1547 1547 1547 1548 1548 1548 1548 1548 1548
1536 1536 1537 1537 1537 1538 1538 1538 1538 1539 1539 1539 1540 1540 1540 1540 1539 1539 1539 1537 1537 1539 1541 1542 1540 1539 1542 1542 1541 1542 1543 1543 1543 1544 1544 1544 1544 1544 1543 1543 1543 1544 1545 1545 1546 1546 1547 1547 1547 1548 1548 1548 1548 1548 1548 1548 1548 1547 1547 1546 1546 1546 1546 1546 1546 1546 1547 1547 1548 1548 1548 1548 1548 1549
1535 1535 1535 1535 1536 1536 1536 1536 1536 1536 1537 1537 1537 1537 1537 1537 1536 1536 1536 1535 1535 1536 1538 1539 1538 1537 1539 1540 1540 1540 1542 1542 1542 1542 1542 1542 1542 1542 1542 1542 1542 1542 1543 1544 1544 1545 1545 1546 1546 1547 1547 1547 1547 1547 1547 1547 1547 1547 1546 1546 1546 1546 1546 1546 1546 1546 1546 1547 1547 1548 1548 1548 1549 1549
1534 1534 1533 1534 1534 1534 1534 1534 1534 1534 1534 1535 1535 1535 1535 1534 1534 1534 1534 1533 1533 1533 1535 1536 1536 1534 1535 1538 1539 1539 1540 1540 1540 1540 1540 1540 1541 1540 1540 1540 1540 1540 1541 1541 1542 1543 1543 1544 1545 1545 1546 1546 1546 1546 1547 1547 1547 1546 1546 1546 1545 1545 1545 1546 1546 1546 1546 1547 1547 1547 1548 1548 1549 1549
1532 1532 1532 1532 1532 1532 1531 1532 1532 1532 1532 1532 1532 1533 1532 1532 1532 1531 1531 1531 1531 1531 1532 1533 1534 1533 1533 1535 1537 1537 1537 1538 1537 1537 1538 1538 1538 1538 1537 1538 1538 1538 1539 1539 1540 1540 1541 1542 1543 1544 1544 1545 1545 1545 1546 1546 1546 1546 1546 1546 1545 1545 1545 1545 1546 1545 1546 1547 1547 1547 1548 1548 1549 1549
1530 1528 1529 1529 1529 1529 1529 1529 1530 1530 1530 1530 1530 1530 1530 1529 1530 1529 1529 1529 1529 1529 1529 1530 1532 1532 1531 1532 1534 1535 1534 1535 1535 1535 1535 1535 1536 1536 1536 1536 1536 1537 1537 1537 1538 1539 1539 1540 1541 1542 1543 1543 1544 1544 1545 1545 1545 1546 1545 1545 1545 1545 1545 1545 1545 1545 1546 1546 1547 1547 1548 1548 1549 1549
1527 1525 1526 1527 1527 1527 1527 1527 1527 1527 1527 1527 1527 1527 1527 1527 1527 1527 1527 1527 1527 1527 1527 1528 1529 1530 1529 1529 1531 1532 1531 1531 1532 1532 1532 1533 1533 1534 1534 1534 1534 1535 1535 1535 1536 1536 1537 1538 1540 1540 1541 1541 1542 1543 1543 1544 1544 1545 1545 1545 1545 1544 1544 1545 1545 1545 1546 1546 1547 1547 1548 1548 1549 1550
1523 1523 1524 1524 1524 1524 1524 1525 1525 1525 1525 1525 1525 1525 1524 1525 1525 1525 1525 1525 1525 1525 1526 1526 1527 1528 1528 1527 1527 1528 1528 1528 1529 1529 1529 1530 1531 1531 1531 1531 1531 1532 1533 1533 1533 1534 1535 1536 1537 1538 1539 1539 1540 1541 1542 1543 1543 1544 1544 1544 1544 1544 1544 1544 1545 1545 1546 1546 1547 1547 1548 1548 1549 1550
1521 1521 1522 1522 1522 1522 1522 1522 1522 1522 1521 1522 1522 1522 1522 1522 1522 1522 1522 1522 1523 1523 1524 1524 1525 1525 1526 1526 1525 1526 1526 1526 1527 1527 1527 1527 1527 1527 1528 1528 1528 1530 1531 1531 1532 1532 1533 1535 1535 1536 1537 1537 1538 1539 1540 1541 1542 1542 1543 1543 1543 1543 1543 1544 1544 1545 1545 1546 1547 1547 1548 1548 1549 1549
1519 1520 1520 1520 1520 1520 1519 1519 1519 1519 1519 1519 1519 1519 1519 1519 1519 1519 1519 1520 1520 1521 1521 1522 1522 1523 1524 1523 1523 1523 1524 1523 1524 1524 1525 1524 1524 1524 1525 1525 1526 1527 1528 1529 1530 1531 1532 1533 1533 1534 1534 1535 1536 1537 1538 1539 1540 1541 1541 1542 1542 1542 1542 1543 1544 1544 1545 1545 1546 1547 1547 1548 1548 1549
1517 1518 1518 1518 1518 1518 1517 1516 1516 1516 1516 1515 1515 1515 1515 1515 1515 1515 1516 1516 1517 1517 1518 1519 1520 1520 1521 1521 1521 1521 1521 1522 1522 1522 1522 1521 1521 1522 1522 1522 1523 1524 1525 1526 1527 1528 1529 1530 1531 1531 1532 1533 1533 1535 1536 1537 1538 1539 1540 1541 1541 1541 1542 1542 1543 1543 1544 1545 1546 1546 1547 1548 1548 1549
1515 1516 1516 1516 1516 1515 1514 1514 1513 1513 1513 1513 1512 1512 1512 1512 1512 1511 1512 1512 1513 1514 1515 1516 1517 1518 1518 1519 1519 1519 1518 1519 1519 1520 1519 1518 1518 1519 1519 1519 1520 1520 1522 1524 1525 1526 1527 1528 1529 1529 1530 1531 1531 1533 1534 1535 1536 1537 1538 1539 1540 1540 1541 1541 1542 1543 1543 1544 1545 1546 1546 1547 1548 1549
1514 1514 1514 1514 1514 1513 1512 1512 1511 1511 1510 1510 1510 1509 1509 1509 1508 1508 1508 1508 1509 1510 1511 1512 1514 1515 1516 1517 1518 1517 1516 1515 1516 1517 1517 1516 1516 1517 1517 1518 1518 1518 1519 1522 1523 1524 1524 1525 1526 1527 1528 1529 1529 1531 1532 1533 1534 1535 1536 1537 1538 1539 1539 1540 1541 1541 1542 1544 1544 1545 1546 1547 1548 1549
1512 1512 1513 1512 1512 1511 1510 1510 1509 1509 1508 1508 1507 1507 1507 1507 1506 1506 1506 1506 1506 1507 1507 1508 1510 1512 1513 1514 1515 1516 1515 1514 1514 1515 1515 1515 1514 1514 1515 1517 1517 1516 1517 1520 1521 1521 1521 1522 1523 1524 1525 1526 1527 1529 1530 1531 1532 1534 1535 1536 1536 1537 1538 1539 1540 1540 1541 1542 1543 1544 1545 1546 1547 1548
1510 1510 1510 1510 1510 1509 1509 1508 1508 1507 1507 1506 1505 1505 1504 1504 1504 1504 1504 1504 1504 1505 1505 1505 1506 1508 1509 1510 1512 1513 1513 1513 1513 1513 1513 1513 1513 1513 1513 1514 1514 1514 1515 1517 1518 1518 1519 1519 1520 1521 1522 1523 1524 1526 1527 1529 1531 1532 1533 1534 1535 1536 1536 1537 1538 1539 1540 1541 1542 1543 1544 1545 1547 1548
1508 1508 1508 1508 1507 1507 1506 1506 1506 1505 1505 1504 1503 1503 1502 1502 1502 1502 1502 1502 1502 1503 1503 1503 1503 1505 1506 1506 1507 1509 1510 1510 1510 1511 1511 1511 1511 1511 1511 1512 1512 1512 1512 1513 1514 1515 1516 1516 1517 1518 1519 1520 1521 1523 1525 1527 1528 1530 1531 1532 1533 1534 1535 1535 1537 1538 1539 1540 1541 1542 1543 1544 1546 1547
1506 1506 1506 1505 1505 1505 1504 1504 1504 1503 1503 1502 1501 1501 1500 1500 1500 1500 1500 1500 1500 1500 1500 1500 1501 1501 1502 1503 1504 1505 1506 1506 1507 1508 1508 1508 1508 1509 1509 1509 1510 1510 1510 1509 1510 1512 1512 1514 1515 1516 1516 1517 1519 1521 1523 1525 1526 1528 1529 1531 1532 1532 1533 1534 1535 1536 1537 1538 1539 1541 1542 1543 1545 1546
1504 1504 1504 1503 1503 1503 1502 1502 1501 1501 1501 1500 1500 1499 1498 1498 1498 1498 1498 1498 1498 1498 1498 1498 1498 1499 1499 1500 1500 1501 1502 1502 1503 1504 1504 1505 1506 1506 1507 1506 1506 1507 1507 1506 1506 1508 1509 1510 1513 1514 1514 1515 1516 1518 1521 1522 1524 1526 1527 1529 1530 1531 1532 1533 1534 1535 1536 1537 1538 1539 1541 1542 1543 1545
1502 1501 1501 1501 1501 1500 1500 1499 1499 1499 1498 1498 1497 1497 1496 1496 1496 1496 1496 1496 1496 1496 1495 1495 1496 1496 1496 1497 1497 1498 1498 1499 1499 1499 1499 1501 1502 1502 1503 1503 1503 1503 1503 1502 1503 1504 1506 1507 1509 1511 1511 1512 1512 1515 1518 1520 1521 1524 1525 1527 1528 1529 1530 1531 1533 1534 1535 1536 1537 1538 1539 1541 1542 1543
1499 1499 1499 1499 1498 1498 1497 1497 1496 1496 1496 1495 1495 1494 1494 1493 1493 1494 1494 1493 1492 1492 1493 1493 1493 1493 1493 1493 1493 1494 1494 1495 1495 1495 1495 1497 1498 1498 1499 1500 1500 1500 1500 1500 1501 1501 1502 1504 1505 1506 1509 1509 1509 1512 1516 1518 1519 1521 1523 1524 1526 1527 1528 1529 1531 1532 1534 1534 1536 1537 1538 1539 1540 1542
1497 1497 1497 1497 1497 1496 1495 1494 1494 1494 1493 1493 1493 1492 1492 1491 1491 1491 1491 1490 1490 1490 1490 1490 1491 1491 1491 1491 1491 1491 1491 1491 1492 1492 1492 1494 1494 1494 1494 1496 1497 1496 1495 1497 1498 1498 1498 1499 1500 1501 1504 1506 1506 1508 1512 1514 1516 1518 1520 1521 1523 1525 1526 1527 1529 1530 1532 1533 1534 1535 1536 1537 1539 1540
1495 1496 1496 1495 1494 1494 1493 1493 1492 1491 1491 1491 1491 1490 1490 1489 1489 1489 1488 1488 1488 1488 1488 1488 1488 1488 1488 1488 1488 1488 1487 1487 1488 1488 1489 1490 1491 1490 1490 1491 1492 1492 1491 1493 1495 1494 1494 1495 1496 1497 1499 1502 1503 1505 1507 1509 1512 1514 1516 1519 1520 1522 1523 1524 1526 1528 1529 1531 1532 1534 1535 1536 1537 1538
1493 1494 1493 1492 1491 1491 1491 1491 1490 1489 1488 1488 1488 1488 1487 1487 1487 1486 1486 1485 1485 1485 1485 1485 1485 1484 1484 1484 1484 1484 1484 1484 1485 1485 1486 1486 1487 1487 1487 1487 1487 1488 1488 1490 1492 1491 1490 1491 1492 1494 1496 1498 1499 1501 1503 1505 1508 1510 1513 1515 1517 1519 1520 1522 1523 1525 1526 1528 1530 1531 1533 1534 1536 1537
1491 1491 1490 1488 1488 1489 1488 1488 1487 1486 1485 1485 1485 1485 1485 1485 1484 1484 1483 1483 1482 1482 1482 1482 1482 1481 1481 1482 1482 1482 1482 1482 1482 1482 1482 1483 1483 1483 1483 1483 1484 1484 1485 1486 1487 1487 1486 1486 1488 1490 1492 1493 1495 1497 1499 1501 1503 1506 1509 1511 1514 1516 1517 1519 1520 1522 1523 1525 1527 1529 1531 1533 1534 1536
1487 1487 1486 1485 1486 1486 1485 1485 1484 1483 1482 1482 1482 1482 1482 1481 1481 1481 1480 1480 1480 1479 1479 1479 1479 1479 1479 1479 1479 1480 1479 1479 1479 1479 1479 1480 1480 1480 1480 1480 1480 1481 1482 1482 1483 1483 1482 1482 1484 1486 1488 1489 1491 1492 1494 1496 1498 1500 1503 1506 1509 1512 1513 1515 1517 1519 1521 1523 1525 1527 1529 1530 1532 1535
1484 1484 1483 1483 1483 1483 1482 1482 1481 1480 1479 1479 1479 1478 1478 1478 1478 1477 1477 1477 1477 1477 1477 1477 1477 1477 1477 1477 1477 1476 1476 1475 1475 1475 1476 1476 1476 1476 1476 1476 1476 1477 1477 1478 1479 1479 1479 1479 1480 1482 1484 1485 1486 1487 1490 1492 1493 1496 1499 1501 1504 1507 1509 1511 1514 1516 1518 1520 1522 1524 1525 1527 1529 1532
1481 1481 1481 1481 1481 1480 1479 1478 1477 1476 1475 1475 1475 1474 1474 1474 1474 1474 1474 1474 1474 1474 1474 1474 1474 1475 1475 1475 1474 1474 1473 1473 1473 1472 1472 1472 1471 1471 1471 1471 1472 1472 1473 1474 1474 1475 1475 1475 1476 1479 1481 1481 1481 1484 1486 1488 1490 1492 1494 1495 1498 1501 1504 1507 1510 1513 1515 1517 1519 1521 1523 1525 1528 1529
1479 1479 1479 1478 1477 1477 1476 1475 1473 1472 1472 1471 1470 1470 1470 1470 1470 1470 1471 1471 1471 1472 1472 1472 1473 1473 1473 1472 1472 1472 1471 1471 1470 1469 1467 1466 1466 1466 1466 1466 1466 1467 1469 1470 1470 1471 1472 1471 1472 1475 1476 1477 1478 1480 1482 1484 1486 1488 1489 1491 1494 1497 1500 1503 1506 1509 1511 1514 1516 1518 1521 1524 1527 1528
1476 1476 1476 1475 1474 1473 1473 1472 1470 1469 1469 1468 1467 1466 1465 1465 1466 1467 1468 1468 1469 1469 1470 1470 1471 1471 1471 1470 1469 1469 1469 1468 1467 1466 1464 1462 1462 1462 1462 1461 1461 1462 1464 1465 1466 1467 1469 1469 1469 1471 1472 1473 1474 1476 1478 1481 1482 1483 1485 1488 1490 1492 1495 1498 1501 1505 1508 1510 1513 1516 1518 1521 1523 1525
1472 1473 1473 1472 1471 1470 1469 1468 1468 1467 1466 1465 1464 1463 1463 1462 1463 1464 1465 1466 1467 1467 1468 1469 1469 1469 1468 1467 1467 1466 1465 1465 1463 1462 1461 1461 1460 1459 1458 1458 1458 1458 1459 1460 1462 1463 1465 1466 1466 1467 1469 1470 1470 1472 1473 1475 1477 1479 1482 1484 1486 1489 1491 1494 1497 1500 1504 1507 1510 1512 1515 1517 1520 1522
1469 1469 1469 1468 1467 1466 1466 1465 1465 1464 1463 1462 1462 1462 1461 1461 1461 1462 1463 1464 1464 1465 1466 1466 1466 1466 1465 1465 1464 1463 1463 1462 1461 1460 1459 1458 1458 1457 1456 1455 1455 1455 1455 1456 1457 1458 1460 1462 1463 1464 1465 1467 1467 1468 1470 1471 1472 1475 1478 1481 1483 1485 1488 1491 1494 1497 1500 1503 1506 1509 1512 1515 1517 1520
1465 1465 1465 1465 1465 1465 1464 1463 1462 1462 1461 1461 1461 1461 1460 1460 1460 1461 1462 1462 1463 1463 1463 1464 1464 1464 1463 1463 1462 1461 1461 1460 1459 1458 1457 1456 1455 1455 1454 1453 1452 1452 1452 1452 1453 1454 1455 1457 1459 1460 1461 1462 1464 1465 1467 1467 1468 1471 1474 1476 1478 1481 1484 1487 1491 1494 1497 1500 1503 1506 1509 1512 1515 1518
1461 1462 1462 1462 1462 1462 1462 1461 1460 1460 1460 1460 1460 1459 1459 1459 1459 1460 1460 1461 1461 1462 1462 1462 1462 1461 1460 1460 1460 1460 1459 1458 1457 1456 1455 1454 1453 1452 1452 1451 1450 1450 1450 1449 1450 1451 1451 1452 1454 1456 1457 1458 1459 1461 1462 1464 1466 1468 1470 1472 1474 1477 1480 1483 1487 1492 1495 1498 1501 1504 1506 1509 1512 1515
1458 1458 1459 1459 1459 1459 1459 1458 1458 1458 1457 1458 1458 1458 1458 1458 1458 1458 1458 1459 1459 1460 1460 1460 1460 1459 1458 1458 1458 1458 1457 1456 1455 1454 1453 1452 1451 1450 1450 1449 1448 1448 1447 1447 1447 1448 1448 1449 1450 1452 1453 1454 1456 1457 1458 1460 1462 1465 1467 1469 1471 1474 1478 1481 1486 1489 1492 1495 1498 1501 1504 1507 1510 1513
1455 1455 1456 1456 1456 1456 1456 1455 1455 1455 1455 1455 1455 1455 1455 1456 1456 1457 1456 1456 1457 1458 1458 1458 1458 1457 1456 1456 1455 1455 1455 1454 1453 1452 1451 1450 1450 1449 1448 1448 1447 1446 1445 1445 1445 1445 1446 1446 1447 1448 1450 1451 1452 1453 1455 1457 1459 1462 1465 1467 1469 1471 1475 1479 1483 1486 1489 1492 1496 1499 1502 1506 1509 1512
1452 1452 1452 1452 1452 1453 1452 1452 1452 1452 1452 1452 1453 1453 1453 1454 1454 1454 1454 1454 1454 1455 1456 1456 1456 1455 1454 1454 1453 1453 1452 1452 1451 1451 1450 1449 1448 1448 1447 1446 1445 1444 1443 1443 1444 1444 1444 1445 1445 1446 1447 1448 1449 1450 1452 1454 1456 1459 1462 1465 1467 1469 1472 1476 1480 1483 1487 1491 1494 1498 1501 1504 1507 1511
1448 1449 1449 1449 1449 1449 1449 1449 1449 1449 1449 1450 1450 1450 1451 1451 1452 1452 1452 1452 1452 1453 1453 1453 1454 1454 1453 1452 1451 1451 1451 1450 1450 1449 1449 1448 1447 1447 1446 1445 1444 1443 1442 1442 1442 1442 1443 1444 1444 1445 1446 1447 1448 1449 1450 1452 1455 1457 1461 1464 1467 1468 1470 1473 1477 1481 1485 1489 1492 1496 1499 1502 1505 1509
1445 1445 1445 1445 1445 1446 1446 1446 1446 1446 1447 1447 1447 1448 1448 1449 1449 1450 1450 1450 1450 1450 1451 1450 1451 1452 1452 1451 1450 1450 1449 1449 1449 1448 1447 1447 1446 1446 1445 1444 1443 1442 1441 1441 1441 1442 1442 1443 1443 1445 1446 1447 1449 1450 1452 1454 1456 1458 1461 1464 1467 1469 1471 1473 1476 1480 1484 1488 1492 1495 1497 1500 1503 1506
1441 1442 1442 1442 1442 1442 1442 1442 1442 1443 1444 1444 1445 1445 1446 1446 1447 1447 1448 1448 1448 1449 1449 1448 1448 1449 1449 1449 1449 1448 1448 1448 1447 1446 1446 1446 1446 1445 1444 1444 1442 1441 1441 1441 1441 1442 1442 1443 1444 1445 1447 1448 1450 1451 1453 1455 1456 1459 1461 1464 1466 1470 1473 1475 1478 1482 1484 1487 1490 1493 1495 1498 1501 1504
1437 1438 1439 1439 1438 1438 1438 1438 1439 1440 1441 1441 1442 1442 1443 1444 1444 1444 1445 1446 1446 1447 1447 1446 1446 1446 1446 1446 1447 1447 1446 1446 1446 1445 1444 1444 1445 1444 1444 1443 1442 1441 1441 1441 1441 1442 1443 1443 1445 1446 1447 1449 1450 1452 1453 1454 1456 1458 1461 1464 1467 1470 1474 1477 1480 1483 1485 1486 1488 1489 1492 1495 1498 1500
1433 1434 1434 1435 1435 1435 1435 1435 1436 1436 1437 1438 1439 1440 1440 1441 1441 1441 1442 1442 1443 1444 1444 1444 1444 1444 1444 1444 1445 1445 1445 1445 1445 1444 1443 1443 1444 1444 1443 1443 1442 1442 1441 1441 1442 1443 1443 1444 1445 1446 1447 1449 1450 1452 1454 1455 1457 1459 1461 1464 1467 1470 1473 1476 1478 1481 1483 1484 1485 1487 1490 1493 1495 1497
1430 1430 1431 1431 1432 1432 1432 1432 1433 1434 1434 1435 1436 1437 1438 1438 1438 1438 1438 1439 1440 1441 1441 1441 1441 1442 1442 1442 1443 1443 1443 1443 1443 1443 1442 1442 1443 1443 1442 1442 1442 1442 1442 1442 1442 1443 1444 1445 1446 1447 1448 1449 1450 1452 1454 1456 1459 1460 1463 1465 1467 1469 1471 1474 1476 1477 1479 1481 1483 1486 1490 1492 1494 1497
1425 1426 1427 1428 1428 1429 1429 1430 1431 1431 1432 1432 1433 1434 1435 1436 1436 1436 1436 1437 1438 1439 1439 1439 1438 1439 1440 1441 1441 1441 1441 1441 1441 1442 1442 1442 1442 1442 1442 1441 1441 1441 1442 1442 1443 1444 1445 1445 1447 1448 1449 1450 1451 1453 1455 1457 1459 1461 1463 1465 1466 1468 1470 1472 1474 1476 1478 1480 1483 1486 1489 1492 1494 1497